Location: Kawakawa
(35.3830°S, 174.0670°E)
Time: 17:20:02
(UTC+13:00)

Explorer 7 - Pass Details

Date: 11 December 2019
Orbit: 485 x 679 km, 50.3° (Epoch: 26 January)

Event Time Altitude Azimuth Distance (km) Brightness Sun altitude
Rises 06:17:28 0° 267° (W) 2,593 9.7 2.0°
Reaches altitude 10° 06:20:17 10° 245° (WSW) 1,698 9.0 2.5°
Maximum altitude 06:22:49 17° 203° (SSW) 1,323 8.9 2.9°
Drops below altitude 10° 06:25:22 10° 161° (SSE) 1,694 10.1 3.4°
Sets 06:28:11 0° 140° (SE) 2,586 11.7 3.9°
